Location: Eindhoven
(51.4416°N, 5.4697°E)
Time: 08:30:55
(UTC+01:00)

Tiros 1 - Pass Details

Date: 21 November 2019
Orbit: 630 x 664 km, 48.4° (Epoch: 12 December)

Event Time Altitude Azimuth Distance (km) Brightness Sun altitude
Rises 20:33:47 0° 275° (W) 2,929 11.5 -35.6°
Reaches altitude 10° 20:37:38 10° 243° (WSW) 2,023 10.2 -36.1°
Enters shadow 20:38:06 11° 237° (WSW) 1,970 10.0 -36.2°
